Year,Month,Day,Hour,Minute,Value (Times are PST for temperature in C)
2010,05,07,13,06,12.10
2010,05,07,13,07,12.10
2010,05,07,13,08,12.10
2010,05,07,13,09,12.10
2010,05,07,13,10,12.10
2010,05,07,13,11,12.10
2010,05,07,13,12,12.20
2010,05,07,13,13,12.80
2010,05,07,13,14,12.80
2010,05,07,13,15,12.80
2010,05,07,13,16,12.80
2010,05,07,13,17,12.70
2010,05,07,13,18,12.70
2010,05,07,13,19,12.60
2010,05,07,13,20,12.50
2010,05,07,13,21,12.50
2010,05,07,13,22,12.40
2010,05,07,13,23,12.30
2010,05,07,13,24,12.30
2010,05,07,13,25,12.30
2010,05,07,13,26,12.30
2010,05,07,13,27,12.30
2010,05,07,13,28,12.30
2010,05,07,13,29,12.30
2010,05,07,13,30,12.30
2010,05,07,13,31,12.30
2010,05,07,13,32,12.30
2010,05,07,13,33,12.30
2010,05,07,13,34,12.30
2010,05,07,13,35,12.30
2010,05,07,13,36,12.30
2010,05,07,13,37,12.30
2010,05,07,13,38,12.30
2010,05,07,13,39,12.30
2010,05,07,13,40,12.40
2010,05,07,13,41,13.20
2010,05,07,13,42,13.20
2010,05,07,13,43,13.20
2010,05,07,13,44,13.20
2010,05,07,13,45,13.20
2010,05,07,13,46,13.20
2010,05,07,13,47,13.20
2010,05,07,13,48,13.20
2010,05,07,13,49,13.20
2010,05,07,13,50,13.20
2010,05,07,13,51,13.20
